Pagina principale
METAR-TAF:

METAR-TAF

Aeroporti :

Foggia, Italia

Aeroporto di Foggia

latitudine: 41-25-58N, longitudine: 015-32-06E, altezza: 81 m

Osservazione

Il bollettino è stato emesso 48 minuti fa, alle 12:50 UTC
Vento 24 kt da sud-ovest
Temperature 25°C
Umidità 32%
Pressione 1008 hPa
Visibilità 10 km o più
Poco nuvoloso ad un'altezza di 1500 ft

METAR: LIBF 191250Z 22024KT 9999 FEW015 25/07 Q1008

Ora: 15:38 (13:38 UTC)


TAF: mancante

Osservazioni e previsioni meteorologiche di più di 4000 aeroporti (messaggi METAR e TAF).

Le stazioni disponibili sono rappresentate dai dischi gialli e rossi sulla carta.

Puntare il mouse per vedere il nome della stazione.

Clicca sopra per visualizzare le osservazioni e previsioni meteorologiche.

Per cambiare la mappa : fare clic sui pulsanti verdi con una croce nera per ingrandire, il pulsante verde con un trattino per diminuire, o sulla freccia verde per le mappe adiacenti.


METAR-TAF: